This demonstration page uses our WeatherBlox Daily Observations layout. Learn more.

40.92945, -100.16068

Hourly Observations for December 21, 2016

Temp ( °F °C ) Dew Point ( °F °C ) Humidity (%) Winds ( mph kmh ) Pressure ( in mb ) Visibility ( mi km ) Precip ( " mm )
12:15 am 00:15 Clear 37 2.9 23 -4.9 57 57 S 10 17 30.06 1018 10 16.0934 N/A
12:35 am 00:35 Clear 37 2.8 24 -4.7 58 58 S 8 13 30.06 1018 10 16.0934 N/A
12:55 am 00:55 Clear 38 3.6 24 -4.4 56 56 SSW 10 17 30.03 1017 10 16.0934 N/A
1:15 am 01:15 Clear 38 3.2 24 -4.4 58 58 SSW 13 20 30 1016 10 16.0934 N/A
1:35 am 01:35 Clear 37 2.6 24 -4.5 60 60 W 3 6 30.03 1017 10 16.0934 N/A
1:55 am 01:55 Clear 37 2.6 24 -4.5 60 60 SW 9 15 30.03 1017 10 16.0934 N/A
2:15 am 02:15 Clear 34 1.3 23 -4.8 64 64 W 6 9 30.03 1017 10 16.0934 N/A
2:35 am 02:35 Clear 35 1.5 24 -4.6 64 64 WSW 5 7 30.03 1017 10 16.0934 N/A
2:55 am 02:55 Clear 32 0 23 -4.9 70 70 WNW 3 6 30.06 1018 10 16.0934 N/A
3:15 am 03:15 Clear 32 0 24 -4.6 71 71 W 5 7 30.06 1018 10 16.0934 N/A
3:35 am 03:35 Clear 31 -0.5 23 -5 72 72 W 6 9 30.06 1018 10 16.0934 N/A
3:55 am 03:55 Clear 30 -0.9 22 -5.3 72 72 W 3 6 30.06 1018 10 16.0934 N/A
4:15 am 04:15 Clear 31 -0.8 23 -5.1 73 73 W 5 7 30.03 1017 10 16.0934 N/A
4:35 am 04:35 Mostly Cloudy 29 -1.5 23 -5.2 76 76 WSW 5 7 30.06 1018 10 16.0934 N/A
4:55 am 04:55 Cloudy 30 -1 23 -5 75 75 Calm 30.03 1017 10 16.0934 N/A
5:15 am 05:15 Mostly Cloudy 31 -0.7 23 -4.8 74 74 SW 5 7 30.03 1017 10 16.0934 N/A
5:35 am 05:35 Mostly Cloudy 30 -1 23 -4.8 76 76 NNW 7 11 30.06 1018 10 16.0934 N/A
5:55 am 05:55 Partly Cloudy 30 -1 24 -4.7 76 76 WNW 6 9 30.06 1018 10 16.0934 N/A
6:15 am 06:15 Clear 34 0.9 25 -3.8 71 71 WNW 9 15 30.03 1017 10 16.0934 N/A
6:35 am 06:35 Clear 41 4.9 27 -2.9 57 57 WNW 10 17 30 1016 10 16.0934 N/A
6:55 am 06:55 Clear 32 0.2 23 -4.9 69 69 W 7 11 30.03 1017 10 16.0934 N/A
7:15 am 07:15 Clear 37 2.6 27 -3 67 67 NNW 7 11 30.06 1018 10 16.0934 N/A
7:35 am 07:35 Clear 40 4.5 27 -2.7 60 60 NW 12 19 30.06 1018 10 16.0934 N/A
7:55 am 07:55 Clear 46 8 28 -2 50 50 NNW 17 28 30.03 1017 10 16.0934 N/A
8:15 am 08:15 Sunny 47 8.5 28 -2 48 48 N 23 37 30.06 1018 10 16.0934 N/A
8:35 am 08:35 Sunny 46 7.6 28 -2.1 51 51 N 21 33 30.06 1018 10 16.0934 N/A
8:55 am 08:55 Sunny 46 7.5 28 -2.3 50 50 N 23 37 30.06 1018 10 16.0934 N/A
9:15 am 09:15 Sunny 44 6.8 27 -3 50 50 N 20 31 30.12 1020 10 16.0934 N/A
9:35 am 09:35 Sunny 45 7 24 -4.3 45 45 N 20 31 30.15 1021 10 16.0934 N/A
9:55 am 09:55 Sunny 43 6.1 22 -5.5 44 44 N 21 33 30.12 1020 10 16.0934 N/A
10:15 am 10:15 Sunny 45 7.4 21 -5.9 39 39 N 23 37 30.15 1021 10 16.0934 N/A
10:35 am 10:35 Sunny 46 7.5 20 -6.8 36 36 N 22 35 30.18 1022 10 16.0934 N/A
10:55 am 10:55 Sunny 45 7.4 18 -7.6 34 34 N 23 37 30.18 1022 10 16.0934 N/A
11:15 am 11:15 Sunny 46 7.8 17 -8.1 32 32 N 22 35 30.18 1022 10 16.0934 N/A
11:35 am 11:35 Sunny 46 7.6 16 -9 30 30 N 20 31 30.18 1022 10 16.0934 N/A
11:55 am 11:55 Sunny 46 7.8 16 -9.1 29 29 N 18 30 30.18 1022 10 16.0934 N/A
12:15 pm 12:15 Sunny 48 8.7 15 -9.3 27 27 N 25 41 30.15 1021 10 16.0934 N/A
12:35 pm 12:35 Sunny 48 8.8 14 -10 26 26 N 23 37 30.18 1022 10 16.0934 N/A
12:55 pm 12:55 Sunny 48 9 14 -9.8 26 26 NNW 20 31 30.18 1022 10 16.0934 N/A
1:15 pm 13:15 Sunny 48 9 14 -10 25 25 NNW 18 30 30.18 1022 10 16.0934 N/A
1:35 pm 13:35 Sunny 49 9.3 14 -10.1 25 25 NNW 21 33 30.18 1022 10 16.0934 N/A
1:55 pm 13:55 Sunny 49 9.5 14 -10.2 24 24 NNW 24 39 30.18 1022 10 16.0934 N/A
2:15 pm 14:15 Sunny 50 9.9 13 -10.5 23 23 NNW 24 39 30.18 1022 10 16.0934 N/A
2:35 pm 14:35 Sunny 49 9.6 10 -12 21 21 NNW 23 37 30.21 1023 10 16.0934 N/A
2:55 pm 14:55 Sunny 49 9.5 12 -11.2 22 22 NNW 22 35 30.21 1023 10 16.0934 N/A
3:15 pm 15:15 Sunny 49 9.3 12 -11 23 23 NNW 28 44 30.21 1023 10 16.0934 N/A
3:35 pm 15:35 Sunny 48 9 13 -10.5 24 24 N 29 46 30.24 1024 10 16.0934 N/A
3:55 pm 15:55 Sunny 47 8.5 13 -10.6 25 25 NNW 24 39 30.27 1025 10 16.0934 N/A
4:15 pm 16:15 Sunny 46 7.7 13 -10.5 26 26 N 22 35 30.27 1025 10 16.0934 N/A
4:35 pm 16:35 Sunny 45 7 14 -10.2 28 28 NNW 26 43 30.27 1025 10 16.0934 N/A
4:55 pm 16:55 Sunny 43 6.2 14 -9.9 31 31 NNW 21 33 30.3 1026 10 16.0934 N/A
5:15 pm 17:15 Clear 42 5.5 15 -9.6 33 33 NNW 21 33 30.33 1027 10 16.0934 N/A
5:35 pm 17:35 Clear 40 4.5 15 -9.2 37 37 NNW 21 33 30.33 1027 10 16.0934 N/A
5:55 pm 17:55 Clear 40 4.3 16 -8.7 39 39 N 18 30 30.33 1027 10 16.0934 N/A
6:15 pm 18:15 Clear 37 2.6 17 -8.6 44 44 NNW 13 20 30.36 1028 10 16.0934 N/A
6:35 pm 18:35 Clear 36 2.2 17 -8.3 46 46 NNW 13 20 30.39 1029 10 16.0934 N/A
6:55 pm 18:55 Clear 34 1.2 18 -8 51 51 NNW 14 22 30.39 1029 10 16.0934 N/A
7:15 pm 19:15 Clear 34 1.2 19 -7.5 53 53 NW 10 17 30.39 1029 10 16.0934 N/A
7:30 pm 19:30 Clear 32 0 18 -7.7 57 57 NW 9 15 30.45 1031 10 16.0934 N/A
7:55 pm 19:55 Clear 30 -1.3 18 -7.6 63 63 NW 9 15 30.45 1031 10 16.0934 N/A
8:15 pm 20:15 Clear 28 -2.1 18 -7.9 65 65 NW 6 9 30.45 1031 10 16.0934 N/A
8:35 pm 20:35 Clear 25 -4 16 -9 69 69 NNW 8 13 30.5 1033 10 16.0934 N/A
8:55 pm 20:55 Clear 27 -3 17 -8.3 67 67 NW 9 15 30.5 1033 10 16.0934 N/A
9:15 pm 21:15 Clear 26 -3.3 17 -8.3 69 69 NW 10 17 30.5 1033 10 16.0934 N/A
9:35 pm 21:35 Clear 25 -3.8 17 -8.4 71 71 NW 6 9 30.5 1033 10 16.0934 N/A
9:55 pm 21:55 Clear 23 -4.9 16 -8.8 74 74 WNW 8 13 30.5 1033 10 16.0934 N/A
10:15 pm 22:15 Clear 25 -4.1 17 -8.4 72 72 Calm 30.5 1033 10 16.0934 N/A
10:35 pm 22:35 Clear 22 -5.7 16 -9.1 77 77 W 8 13 30.56 1035 10 16.0934 N/A
10:55 pm 22:55 Clear 22 -5.4 16 -8.9 77 77 W 10 17 30.53 1034 10 16.0934 N/A
11:15 pm 23:15 Clear 22 -5.5 16 -8.9 77 77 WNW 8 13 30.53 1034 10 16.0934 N/A
11:35 pm 23:35 Clear 23 -5.2 16 -8.9 76 76 WNW 8 13 30.56 1035 10 16.0934 N/A
11:55 pm 23:55 Clear 22 -5.7 15 -9.2 77 77 WNW 10 17 30.56 1035 10 16.0934 N/A

Powered by AerisWeather